Corona, CA

11:19 PM PST on December 16, 2017 (GMT -0800)
Corona Municipal

Weather History for KAJO - March, 2014

Change the Weather History Date:

Tuesday, March 18, 2014

  Actual Average (KCNO) Record (KCNO)
Temperature  
Mean Temperature 62 °F -  
Max Temperature 82 °F 68 °F 86 °F (2009)
Min Temperature 43 °F 42 °F 37 °F (2002)
Degree Days  
Heating Degree Days 3    
Growing Degree Days 12 (Base 50)    
Moisture  
Dew Point 42 °F    
Average Humidity 63    
Maximum Humidity 100    
Minimum Humidity 9    
Precipitation  
Precipitation 0.00 in - - ()
Sea Level Pressure  
Sea Level Pressure 29.85 in    
Wind  
Wind Speed 3 mph (NW)    
Max Wind Speed 15 mph    
Max Gust Speed 21 mph    
Visibility 10 miles    
Events      
Averages and records for this station are not official NWS values.
T = Trace of Precipitation, MM = Missing Value Source: NWS Daily Summary

Daily Weather History Graph

Daily Weather History Graph

Search for Another Location

Airport or City:

Trip Planner

Search our weather history database for the weather conditions in past years. The results will help you decide how hot, cold, wet, or windy it might be!

Date:

Astronomy

Mar. 18, 2014 Rise Set
Actual Time 6:56 AM PDT 7:00 PM PDT
Civil Twilight 6:31 AM PDT 7:25 PM PDT
Nautical Twilight 6:02 AM PDT 7:54 PM PDT
Astronomical Twilight 5:33 AM PDT 8:23 PM PDT
Moon 9:14 PM PDT (3/18) 7:55 AM PDT (3/18)
Length of Visible Light 12h 53m
Length of Day
12h 03m
Waning Gibbous, 96% of the Moon is Illuminated
Mar 18
Waning Gibbous
Mar 23
Last Quarter
Mar 30
New
Apr 7
First Quarter
Apr 15
Full

Hourly Weather History & Observations

Time (PDT) Temp. Dew Point Humidity Pressure Visibility Wind Dir Wind Speed Gust Speed Precip Events Conditions
12:56 AM 48.9 °F 46.9 °F 93% 29.83 in 9.0 mi Calm Calm - N/A   Clear
1:56 AM 46.9 °F 45.9 °F 96% 29.82 in 9.0 mi Calm Calm - N/A   Clear
2:56 AM 46.9 °F 45.9 °F 96% 29.82 in 9.0 mi Calm Calm - N/A   Clear
3:56 AM 45.9 °F 43.9 °F 93% 29.81 in 10.0 mi Calm Calm - N/A   Clear
4:56 AM 45.9 °F 45.9 °F 100% 29.82 in 8.0 mi Calm Calm - N/A   Clear
5:56 AM 45.0 °F 43.0 °F 93% 29.83 in 10.0 mi Calm Calm - N/A   Clear
6:56 AM 43.9 °F 41.9 °F 93% 29.84 in 9.0 mi Calm Calm - N/A   Clear
7:56 AM 47.8 °F 45.9 °F 93% 29.86 in 10.0 mi Calm Calm - N/A   Clear
8:56 AM 54.9 °F 50.0 °F 84% 29.86 in 10.0 mi Variable 3.5 mph - N/A   Clear
9:56 AM 61.9 °F 50.9 °F 67% 29.88 in 10.0 mi Calm Calm - N/A   Clear
10:56 AM 70.9 °F 43.0 °F 37% 29.87 in 10.0 mi Variable 6.9 mph - N/A   Clear
11:56 AM 73.9 °F 39.9 °F 29% 29.86 in 10.0 mi NNE 9.2 mph - N/A   Clear
12:56 PM 77.9 °F 19.0 °F 11% 29.83 in 10.0 mi NE 15.0 mph 20.7 mph N/A   Clear
1:56 PM 81.0 °F 18.1 °F 10% 29.81 in 10.0 mi East 11.5 mph - N/A   Clear
2:56 PM 81.9 °F 18.1 °F 9% 29.80 in 10.0 mi Variable 5.8 mph - N/A   Clear
3:56 PM 81.0 °F 16.2 °F 9% 29.80 in 10.0 mi Calm Calm - N/A   Clear
4:56 PM 77.0 °F 45.9 °F 33% 29.80 in 10.0 mi West 9.2 mph - N/A   Clear
5:56 PM 72.9 °F 50.0 °F 44% 29.81 in 10.0 mi West 13.8 mph - N/A   Clear
6:56 PM 68.9 °F 50.9 °F 53% 29.83 in 10.0 mi West 9.2 mph - N/A   Clear
7:56 PM 65.8 °F 47.8 °F 52% 29.85 in 10.0 mi NW 5.8 mph - N/A   Clear
8:56 PM 63.0 °F 50.9 °F 65% 29.89 in 10.0 mi Calm Calm - N/A   Clear
9:56 PM 59.9 °F 52.9 °F 78% 29.91 in 10.0 mi West 5.8 mph - N/A   Clear
10:56 PM 57.9 °F 52.0 °F 81% 29.93 in 10.0 mi Variable 4.6 mph - N/A   Clear
11:56 PM 55.9 °F 52.0 °F 87% 29.94 in 10.0 mi West 3.5 mph - N/A   Clear